CZ-6A DEB

Satellite information

Favourite Embed

Satellite Type and Status

DEBRISIN ORBIT

Key statistics

Satellite CZ-6A DEB at a glance.

Uptime

1087

Days in orbit

Revolutions

≈ 14.5

Per day

Orbit

SSO

Sun Synchronous Orbit

Inclination

99.1

Latest

Satellite identification and parameters

Extended collection of information and parameters for CZ-6A DEB.

Object identification

Identified? True

Debris? True

Object name: CZ-6A DEB

International designator: 2022-151QR

Object number (NORAD): 54904

Object ID (CCSDS): 54904

Country: PEOPLES REPUBLIC OF CHINA (PRC)

Current information (Y/N): Y

RCS size: SMALL

Orbital parameters

Period: 99.234 minutes

Inclination: 99.06 deg

SMA: 7100.127 km

Apoapsis: 783.785 km

Periapsis: 660.198 km

RAAN: 33.5433 deg

Eccentricy: 0.00870318

Argument of periapsis: 5.5442 deg

Mean anomaly: 354.6694 deg

Mean motion: 14.51120987 rev/day

Mean motion (dot): 0.00010126 rev/day2

B* drag term: 0.0024414537 1/REarth

Two-line elements (TLE)

Creation date: Oct. 30, 2025, 10:34 a.m.

Reference frame: TEME

Reference center: EARTH

Epoch: Oct. 30, 2025, 4:24 a.m. UTC

TLE line 0: 0 CZ-6A DEB

TLE line 1: 1 54904U 22151QR 25303.18398545 .00010126 00000-0 24415-2 0 9997

TLE line 2: 2 54904 99.0600 33.5433 0087032 5.5442 354.6694 14.51120987155353

Live tracking on map

Real-time ground track for satellite CZ-6A DEB.

In-orbit conjunctions

A list of the most updated potential collisions computed for object CZ-6A DEB.

Target Orbit TCA Probability of collision Miss distance Type
COSMOS 192 LEO 2025-03-29 12:13:28 0.0001468053 654.0 (m) PAYLOAD
COROT SSO 2024-06-21 16:36:11 0.002661756 45.0 (m) PAYLOAD

Associated space launch

Chinese satellite reported for atmospheric/ocean/environmental/spatial parameter research purposes, details TBD.

CZ-6A DEB was lifted into orbit during the mission ‘Long March 6A | Yunhai 3’, on board a Long March 6A space rocket.

The launch took place on Nov. 11, 2022, 10:52 p.m. from Launch Complex 9A.

For more information about the launch, click the button.

Launch to space Long March 6A | Yunhai 3
Long March 6A | Yunhai 3

Agency: N/A

Status: Launch Successful

Launch date: Nov. 11, 2022, 10:52 p.m. UTC

Rocket: Long March 6A

Launch pad: Launch Complex 9A

Location: Taiyuan Satellite Launch Center, People's Republic of China

...

Latest news about this satellite

There are no fresh news available about this satellite. Check back as we update our databases every day.


Newsletter sign-up

Weekly statistics, charts and insights to help you stay on top of the space industry.